Year,Month,Day,Hour,Minute,Value (Times are PST for temperature in C)
2010,04,23,00,00,10.10
2010,04,23,00,01,10.00
2010,04,23,00,02,10.00
2010,04,23,00,03,9.90
2010,04,23,00,04,9.90
2010,04,23,00,05,9.90
2010,04,23,00,06,9.90
2010,04,23,00,07,9.90
2010,04,23,00,08,9.90
2010,04,23,00,09,9.90
2010,04,23,00,10,9.90
2010,04,23,00,11,9.90
2010,04,23,00,12,9.90
2010,04,23,00,13,10.00
2010,04,23,00,14,10.00
2010,04,23,00,15,10.00
2010,04,23,00,16,10.10
2010,04,23,00,17,10.10
2010,04,23,00,18,10.10
2010,04,23,00,19,10.10
2010,04,23,00,20,10.10
2010,04,23,00,21,10.10
2010,04,23,00,22,10.10
2010,04,23,00,23,10.10
2010,04,23,00,24,10.10
2010,04,23,00,25,10.10
2010,04,23,00,26,10.10
2010,04,23,00,27,10.10
2010,04,23,00,28,10.10
2010,04,23,00,29,10.10
2010,04,23,00,30,10.20
2010,04,23,00,31,10.20
2010,04,23,00,32,10.20
2010,04,23,00,33,10.20
2010,04,23,00,34,10.20
2010,04,23,00,35,10.20
2010,04,23,00,36,10.20
2010,04,23,00,37,10.10
2010,04,23,00,38,10.10
2010,04,23,00,39,10.10
2010,04,23,00,40,10.10
2010,04,23,00,41,10.10
2010,04,23,00,42,10.00
2010,04,23,00,43,10.00
2010,04,23,00,44,9.90
2010,04,23,00,45,9.90
2010,04,23,00,46,9.80
2010,04,23,00,47,9.80
2010,04,23,00,48,9.70
2010,04,23,00,49,9.60
2010,04,23,00,50,9.50
2010,04,23,00,51,9.40
2010,04,23,00,52,9.30
2010,04,23,00,53,9.30
2010,04,23,00,54,9.20
2010,04,23,00,55,9.20
2010,04,23,00,56,9.10
2010,04,23,00,57,9.10
2010,04,23,00,58,9.00
2010,04,23,00,59,9.00
2010,04,23,01,00,9.00
2010,04,23,01,01,8.90
2010,04,23,01,02,8.90
2010,04,23,01,03,8.90
2010,04,23,01,04,8.90
2010,04,23,01,05,8.80
2010,04,23,01,06,8.70
2010,04,23,01,07,8.70
2010,04,23,01,08,8.50
2010,04,23,01,09,8.50
2010,04,23,01,10,8.40
2010,04,23,01,11,8.30
2010,04,23,01,12,8.20
2010,04,23,01,13,8.20
2010,04,23,01,14,8.10
2010,04,23,01,15,8.10
2010,04,23,01,16,8.00
2010,04,23,01,17,8.00
2010,04,23,01,18,7.90
2010,04,23,01,19,7.90
2010,04,23,01,20,7.90
2010,04,23,01,21,7.90
2010,04,23,01,22,7.80
2010,04,23,01,23,7.80
2010,04,23,01,24,7.80
2010,04,23,01,25,7.80
2010,04,23,01,26,7.70
2010,04,23,01,27,7.70
2010,04,23,01,28,7.70
2010,04,23,01,29,7.70
2010,04,23,01,30,7.70
2010,04,23,01,31,7.60
2010,04,23,01,32,7.60
2010,04,23,01,33,7.60
2010,04,23,01,34,7.60
2010,04,23,01,35,7.60
2010,04,23,01,36,7.60
2010,04,23,01,37,7.60
2010,04,23,01,38,7.50
2010,04,23,01,39,7.40
2010,04,23,01,40,7.30
2010,04,23,01,41,7.30
2010,04,23,01,42,7.20
2010,04,23,01,43,7.20
2010,04,23,01,44,7.20
2010,04,23,01,45,7.20
2010,04,23,01,46,7.20
2010,04,23,01,47,7.20
2010,04,23,01,48,7.20
2010,04,23,01,49,7.20
2010,04,23,01,50,7.20
2010,04,23,01,51,7.20
2010,04,23,01,52,7.20
2010,04,23,01,53,7.20
2010,04,23,01,54,7.20
2010,04,23,01,55,7.20
2010,04,23,01,56,7.10
2010,04,23,01,57,7.10
2010,04,23,01,58,7.00
2010,04,23,01,59,7.00
2010,04,23,02,00,6.90
2010,04,23,02,01,6.90
2010,04,23,02,02,6.80
2010,04,23,02,03,6.80
2010,04,23,02,04,6.70
2010,04,23,02,05,6.70
2010,04,23,02,06,6.70
2010,04,23,02,07,6.60
2010,04,23,02,08,6.60
2010,04,23,02,09,6.50
2010,04,23,02,10,6.50
2010,04,23,02,11,6.40
2010,04,23,02,12,6.40
2010,04,23,02,13,6.30
2010,04,23,02,14,6.30
2010,04,23,02,15,6.30
2010,04,23,02,16,6.20
2010,04,23,02,17,6.20
2010,04,23,02,18,6.10
2010,04,23,02,19,6.10
2010,04,23,02,20,6.10
2010,04,23,02,21,6.00
2010,04,23,02,22,6.00
2010,04,23,02,23,6.00
2010,04,23,02,24,6.00
2010,04,23,02,25,5.90
2010,04,23,02,26,5.90
2010,04,23,02,27,5.90
2010,04,23,02,28,5.80
2010,04,23,02,29,5.80
2010,04,23,02,30,5.80
2010,04,23,02,31,5.70
2010,04,23,02,32,5.70
2010,04,23,02,33,5.70
2010,04,23,02,34,5.60
2010,04,23,02,35,5.60
2010,04,23,02,36,5.60
2010,04,23,02,37,5.50
2010,04,23,02,38,5.50
2010,04,23,02,39,5.40
2010,04,23,02,40,5.40
2010,04,23,02,41,5.40
2010,04,23,02,42,5.40
2010,04,23,02,43,5.40
2010,04,23,02,44,5.40
2010,04,23,02,45,5.40
2010,04,23,02,46,5.40
2010,04,23,02,47,5.40
2010,04,23,02,48,5.40
2010,04,23,02,49,5.40
2010,04,23,02,50,5.40
2010,04,23,02,51,5.40
2010,04,23,02,52,5.40
2010,04,23,02,53,5.40
2010,04,23,02,54,5.40
2010,04,23,02,55,5.40
2010,04,23,02,56,5.40
2010,04,23,02,57,5.40
2010,04,23,02,58,5.40
2010,04,23,02,59,5.40
2010,04,23,03,00,5.40
2010,04,23,03,01,5.40
2010,04,23,03,02,5.40
2010,04,23,03,06,5.30
2010,04,23,03,07,5.30
2010,04,23,03,08,5.30
2010,04,23,03,09,5.30
2010,04,23,03,10,5.30
2010,04,23,03,11,5.30
2010,04,23,03,12,5.30
2010,04,23,03,13,5.40
2010,04,23,03,14,5.40
2010,04,23,03,15,5.40
2010,04,23,03,16,5.30
2010,04,23,03,17,5.30
2010,04,23,03,18,5.30
2010,04,23,03,19,5.30
2010,04,23,03,20,5.30
2010,04,23,03,21,5.30
2010,04,23,03,22,5.30
2010,04,23,03,23,5.20
2010,04,23,03,24,5.20
2010,04,23,03,25,5.20
2010,04,23,03,26,5.20
2010,04,23,03,27,5.10
2010,04,23,03,28,5.10
2010,04,23,03,29,5.10
2010,04,23,03,30,5.10
2010,04,23,03,31,5.10
2010,04,23,03,32,5.10
2010,04,23,03,33,5.10
2010,04,23,03,34,5.10
2010,04,23,03,35,5.10
2010,04,23,03,36,5.10
2010,04,23,03,37,5.20
2010,04,23,03,38,5.20
2010,04,23,03,39,5.20
2010,04,23,03,40,5.20
2010,04,23,03,41,5.20
2010,04,23,03,42,5.10
2010,04,23,03,43,5.10
2010,04,23,03,44,5.10
2010,04,23,03,45,5.10
2010,04,23,03,46,5.10
2010,04,23,03,47,5.10
2010,04,23,03,48,5.10
2010,04,23,03,49,5.10
2010,04,23,03,50,5.10
2010,04,23,03,51,5.10
2010,04,23,03,52,5.10
2010,04,23,03,53,5.10
2010,04,23,03,54,5.10
2010,04,23,03,55,5.10
2010,04,23,03,56,5.20
2010,04,23,03,57,5.20
2010,04,23,03,58,5.20
2010,04,23,03,59,5.20
2010,04,23,04,00,5.20
2010,04,23,04,01,5.20
2010,04,23,04,02,5.20
2010,04,23,04,03,5.20
2010,04,23,04,04,5.20
2010,04,23,04,05,5.20
2010,04,23,04,06,5.10
2010,04,23,04,07,5.10
2010,04,23,04,08,5.10
2010,04,23,04,09,5.00
2010,04,23,04,10,5.00
2010,04,23,04,11,4.90
2010,04,23,04,12,4.90
2010,04,23,04,13,4.90
2010,04,23,04,14,4.90
2010,04,23,04,15,4.80
2010,04,23,04,16,4.80
2010,04,23,04,17,4.80
2010,04,23,04,18,4.70
2010,04,23,04,19,4.70
2010,04,23,04,20,4.70
2010,04,23,04,21,4.60
2010,04,23,04,22,4.60
2010,04,23,04,23,4.60
2010,04,23,04,24,4.50
2010,04,23,04,25,4.50
2010,04,23,04,26,4.50
2010,04,23,04,27,4.40
2010,04,23,04,28,4.40
2010,04,23,04,29,4.40
2010,04,23,04,30,4.40
2010,04,23,04,31,4.40
2010,04,23,04,32,4.40
2010,04,23,04,33,4.40
2010,04,23,04,34,4.40
2010,04,23,04,35,4.50
2010,04,23,04,36,4.50
2010,04,23,04,37,4.50
2010,04,23,04,38,4.50
2010,04,23,04,39,4.50
2010,04,23,04,40,4.50
2010,04,23,04,41,4.50
2010,04,23,04,42,4.50
2010,04,23,04,43,4.50
2010,04,23,04,44,4.60
2010,04,23,04,45,4.60
2010,04,23,04,46,4.60
2010,04,23,04,47,4.60
2010,04,23,04,48,4.60
2010,04,23,04,49,4.60
2010,04,23,04,50,4.60
2010,04,23,04,51,4.60
2010,04,23,04,52,4.60
2010,04,23,04,53,4.60
2010,04,23,04,54,4.60
2010,04,23,04,55,4.60
2010,04,23,04,56,4.60
2010,04,23,04,57,4.70
2010,04,23,04,58,4.60
2010,04,23,04,59,4.60
2010,04,23,05,00,4.60
2010,04,23,05,01,4.60
2010,04,23,05,02,4.60
2010,04,23,05,03,4.60
2010,04,23,05,04,4.60
2010,04,23,05,05,4.50
2010,04,23,05,06,4.50
2010,04,23,05,07,4.50
2010,04,23,05,08,4.50
2010,04,23,05,09,4.40
2010,04,23,05,10,4.40
2010,04,23,05,11,4.40
2010,04,23,05,12,4.40
2010,04,23,05,13,4.30
2010,04,23,05,14,4.30
2010,04,23,05,15,4.30
2010,04,23,05,16,4.30
2010,04,23,05,17,4.20
2010,04,23,05,18,4.20
2010,04,23,05,19,4.20
2010,04,23,05,20,4.20
2010,04,23,05,21,4.20
2010,04,23,05,22,4.20
2010,04,23,05,23,4.20
2010,04,23,05,24,4.10
2010,04,23,05,25,4.10
2010,04,23,05,26,4.10
2010,04,23,05,27,4.10
2010,04,23,05,28,4.10
2010,04,23,05,29,4.00
2010,04,23,05,30,4.00
2010,04,23,05,31,4.00
2010,04,23,05,32,3.90
2010,04,23,05,33,3.90
2010,04,23,05,34,3.90
2010,04,23,05,35,3.80
2010,04,23,05,36,3.80
2010,04,23,05,37,3.80
2010,04,23,05,38,3.80
2010,04,23,05,39,3.80
2010,04,23,05,40,3.80
2010,04,23,05,41,3.70
2010,04,23,05,42,3.70
2010,04,23,05,43,3.70
2010,04,23,05,44,3.70
2010,04,23,05,45,3.70
2010,04,23,05,46,3.60
2010,04,23,05,47,3.60
2010,04,23,05,48,3.60
2010,04,23,05,49,3.50
2010,04,23,05,50,3.50
2010,04,23,05,51,3.50
2010,04,23,05,52,3.40
2010,04,23,05,53,3.40
2010,04,23,05,54,3.40
2010,04,23,05,55,3.40
2010,04,23,05,56,3.40
2010,04,23,05,57,3.40
2010,04,23,05,58,3.40
2010,04,23,05,59,3.40
2010,04,23,06,00,3.40
2010,04,23,06,01,3.40
2010,04,23,06,02,3.40
2010,04,23,06,03,3.40
2010,04,23,06,04,3.40
2010,04,23,06,05,3.40
2010,04,23,06,06,3.40
2010,04,23,06,07,3.40
2010,04,23,06,08,3.40
2010,04,23,06,09,3.40
2010,04,23,06,10,3.40
2010,04,23,06,11,3.40
2010,04,23,06,12,3.30
2010,04,23,06,13,3.30
2010,04,23,06,14,3.30
2010,04,23,06,15,3.30
2010,04,23,06,16,3.30
2010,04,23,06,17,3.30
2010,04,23,06,18,3.30
2010,04,23,06,19,3.30
2010,04,23,06,20,3.30
2010,04,23,06,21,3.30
2010,04,23,06,22,3.30
2010,04,23,06,23,3.30
2010,04,23,06,24,3.40
2010,04,23,06,25,3.40
2010,04,23,06,26,3.50
2010,04,23,06,27,3.50
2010,04,23,06,28,3.50
2010,04,23,06,29,3.50
2010,04,23,06,30,3.60
2010,04,23,06,31,3.60
2010,04,23,06,32,3.60
2010,04,23,06,33,3.60
2010,04,23,06,34,3.60
2010,04,23,06,35,3.70
2010,04,23,06,36,3.70
2010,04,23,06,37,3.70
2010,04,23,06,38,3.70
2010,04,23,06,39,3.70
2010,04,23,06,40,3.80
2010,04,23,06,41,3.80
2010,04,23,06,42,3.80
2010,04,23,06,43,3.90
2010,04,23,06,44,3.90
2010,04,23,06,45,4.00
2010,04,23,06,46,4.00
2010,04,23,06,47,4.10
2010,04,23,06,48,4.10
2010,04,23,06,49,4.20
2010,04,23,06,50,4.20
2010,04,23,06,51,4.30
2010,04,23,06,52,4.30
2010,04,23,06,53,4.40
2010,04,23,06,54,4.50
2010,04,23,06,55,4.60
2010,04,23,06,56,4.70
2010,04,23,06,57,4.80
2010,04,23,06,58,4.80
2010,04,23,06,59,4.80
2010,04,23,07,00,4.90
2010,04,23,07,01,4.90
2010,04,23,07,02,5.00
2010,04,23,07,03,5.10
2010,04,23,07,04,5.10
2010,04,23,07,05,5.10
2010,04,23,07,06,5.10
2010,04,23,07,07,5.10
2010,04,23,07,08,5.10
2010,04,23,07,09,5.10
2010,04,23,07,10,5.10
2010,04,23,07,11,5.10
2010,04,23,07,12,5.10
2010,04,23,07,13,5.10
2010,04,23,07,14,5.10
2010,04,23,07,15,5.10
2010,04,23,07,16,5.10
2010,04,23,07,17,5.10
2010,04,23,07,18,5.10
2010,04,23,07,19,5.20
2010,04,23,07,20,5.20
2010,04,23,07,21,5.20
2010,04,23,07,22,5.20
2010,04,23,07,23,5.20
2010,04,23,07,24,5.20
2010,04,23,07,25,5.20
2010,04,23,07,26,5.20
2010,04,23,07,27,5.20
2010,04,23,07,28,5.20
2010,04,23,07,29,5.20
2010,04,23,07,30,5.20
2010,04,23,07,31,5.20
2010,04,23,07,32,5.10
2010,04,23,07,33,5.10
2010,04,23,07,34,5.10
2010,04,23,07,35,5.10
2010,04,23,07,36,5.20
2010,04,23,07,37,5.20
2010,04,23,07,38,5.20
2010,04,23,07,39,5.20
2010,04,23,07,40,5.20
2010,04,23,07,41,5.20
2010,04,23,07,42,5.20
2010,04,23,07,43,5.20
2010,04,23,07,44,5.20
2010,04,23,07,45,5.20
2010,04,23,07,46,5.20
2010,04,23,07,47,5.20
2010,04,23,07,48,5.30
2010,04,23,07,49,5.30
2010,04,23,07,50,5.30
2010,04,23,07,51,5.30
2010,04,23,07,52,5.30
2010,04,23,07,53,5.30
2010,04,23,07,54,5.40
2010,04,23,07,55,5.40
2010,04,23,07,56,5.40
2010,04,23,07,57,5.40
2010,04,23,07,58,5.50
2010,04,23,07,59,5.50
2010,04,23,08,00,5.60
2010,04,23,08,01,5.60
2010,04,23,08,02,5.60
2010,04,23,08,03,5.60
2010,04,23,08,04,5.70
2010,04,23,08,05,5.70
2010,04,23,08,06,5.70
2010,04,23,08,07,5.80
2010,04,23,08,08,5.80
2010,04,23,08,09,5.90
2010,04,23,08,10,5.90
2010,04,23,08,11,6.00
2010,04,23,08,12,6.10
2010,04,23,08,13,6.10
2010,04,23,08,14,6.20
2010,04,23,08,15,6.20
2010,04,23,08,16,6.30
2010,04,23,08,17,6.30
2010,04,23,08,18,6.30
2010,04,23,08,19,6.40
2010,04,23,08,20,6.40
2010,04,23,08,21,6.40
2010,04,23,08,22,6.50
2010,04,23,08,23,6.60
2010,04,23,08,24,6.60
2010,04,23,08,25,6.60
2010,04,23,08,26,6.70
2010,04,23,08,27,6.70
2010,04,23,08,28,6.70
2010,04,23,08,29,6.70
2010,04,23,08,30,6.70
2010,04,23,08,31,6.70
2010,04,23,08,32,6.80
2010,04,23,08,33,6.80
2010,04,23,08,34,6.80
2010,04,23,08,35,6.90
2010,04,23,08,36,6.90
2010,04,23,08,37,7.00
2010,04,23,08,38,7.00
2010,04,23,08,39,7.10
2010,04,23,08,40,7.10
2010,04,23,08,41,7.20
2010,04,23,08,42,7.20
2010,04,23,08,43,7.20
2010,04,23,08,44,7.20
2010,04,23,08,45,7.20
2010,04,23,08,46,7.30
2010,04,23,08,47,7.30
2010,04,23,08,48,7.40
2010,04,23,08,49,7.40
2010,04,23,08,50,7.60
2010,04,23,08,51,7.70
2010,04,23,08,52,7.70
2010,04,23,08,53,7.80
2010,04,23,08,54,7.80
2010,04,23,08,55,7.90
2010,04,23,08,56,8.10
2010,04,23,08,57,8.20
2010,04,23,08,58,8.30
2010,04,23,08,59,8.30
2010,04,23,09,00,8.40
2010,04,23,09,01,8.40
2010,04,23,09,02,8.40
2010,04,23,09,03,8.30
2010,04,23,09,04,8.30
2010,04,23,09,05,8.30
2010,04,23,09,06,8.20
2010,04,23,09,07,8.20
2010,04,23,09,08,8.10
2010,04,23,09,09,8.10
2010,04,23,09,10,8.20
2010,04,23,09,11,8.30
2010,04,23,09,12,8.40
2010,04,23,09,13,8.40
2010,04,23,09,14,8.40
2010,04,23,09,15,8.40
2010,04,23,09,16,8.40
2010,04,23,09,17,8.50
2010,04,23,09,18,8.50
2010,04,23,09,19,8.50
2010,04,23,09,20,8.50
2010,04,23,09,21,8.60
2010,04,23,09,22,8.60
2010,04,23,09,23,8.60
2010,04,23,09,24,8.70
2010,04,23,09,25,8.70
2010,04,23,09,26,8.80
2010,04,23,09,27,8.80
2010,04,23,09,28,8.90
2010,04,23,09,29,9.00
2010,04,23,09,30,9.10
2010,04,23,09,31,9.10
2010,04,23,09,32,9.10
2010,04,23,09,33,9.00
2010,04,23,09,34,8.90
2010,04,23,09,35,8.90
2010,04,23,09,36,8.80
2010,04,23,09,37,8.70
2010,04,23,09,38,8.60
2010,04,23,09,39,8.60
2010,04,23,09,40,8.60
2010,04,23,09,41,8.70
2010,04,23,09,42,8.70
2010,04,23,09,43,8.80
2010,04,23,09,44,8.90
2010,04,23,09,45,8.90
2010,04,23,09,46,8.90
2010,04,23,09,47,8.90
2010,04,23,09,48,8.90
2010,04,23,09,49,8.90
2010,04,23,09,50,9.00
2010,04,23,09,51,9.10
2010,04,23,09,52,9.20
2010,04,23,09,53,9.30
2010,04,23,09,54,9.40
2010,04,23,09,55,9.40
2010,04,23,09,56,9.50
2010,04,23,09,57,9.70
2010,04,23,09,58,9.70
2010,04,23,09,59,9.80
2010,04,23,10,00,9.80
2010,04,23,10,01,9.80
2010,04,23,10,02,9.90
2010,04,23,10,03,10.00
2010,04,23,10,04,10.10
2010,04,23,10,05,10.20
2010,04,23,10,06,10.20
2010,04,23,10,07,10.10
2010,04,23,10,08,10.00
2010,04,23,10,09,9.90
2010,04,23,10,10,9.90
2010,04,23,10,11,10.00
2010,04,23,10,12,10.00
2010,04,23,10,13,10.00
2010,04,23,10,14,10.10
2010,04,23,10,15,10.20
2010,04,23,10,16,10.20
2010,04,23,10,17,10.20
2010,04,23,10,18,10.20
2010,04,23,10,19,10.20
2010,04,23,10,20,10.20
2010,04,23,10,21,10.20
2010,04,23,10,22,10.20
2010,04,23,10,23,10.20
2010,04,23,10,24,10.20
2010,04,23,10,25,10.20
2010,04,23,10,26,10.20
2010,04,23,10,27,10.20
2010,04,23,10,28,10.20
2010,04,23,10,29,10.20
2010,04,23,10,30,10.30
2010,04,23,10,31,10.30
2010,04,23,10,32,10.30
2010,04,23,10,33,10.30
2010,04,23,10,34,10.30
2010,04,23,10,35,10.20
2010,04,23,10,36,10.20
2010,04,23,10,37,10.20
2010,04,23,10,38,10.20
2010,04,23,10,39,10.10
2010,04,23,10,40,10.10
2010,04,23,10,41,10.10
2010,04,23,10,42,10.10
2010,04,23,10,43,10.00
2010,04,23,10,44,10.00
2010,04,23,10,45,10.00
2010,04,23,10,46,9.90
2010,04,23,10,47,9.90
2010,04,23,10,48,10.00
2010,04,23,10,49,10.00
2010,04,23,10,50,10.10
2010,04,23,10,51,10.10
2010,04,23,10,52,10.00
2010,04,23,10,53,9.90
2010,04,23,10,54,9.90
2010,04,23,10,55,9.90
2010,04,23,10,56,9.90
2010,04,23,10,57,10.00
2010,04,23,10,58,10.10
2010,04,23,10,59,10.20
2010,04,23,11,00,10.20
2010,04,23,11,01,10.20
2010,04,23,11,02,10.30
2010,04,23,11,03,10.30
2010,04,23,11,04,10.40
2010,04,23,11,05,10.40
2010,04,23,11,06,10.50
2010,04,23,11,07,10.60
2010,04,23,11,08,10.70
2010,04,23,11,09,10.60
2010,04,23,11,10,10.60
2010,04,23,11,11,10.60
2010,04,23,11,12,10.70
2010,04,23,11,13,10.70
2010,04,23,11,14,10.70
2010,04,23,11,15,10.80
2010,04,23,11,16,10.80
2010,04,23,11,17,10.90
2010,04,23,11,18,11.00
2010,04,23,11,19,11.10
2010,04,23,11,20,11.20
2010,04,23,11,21,11.20
2010,04,23,11,22,11.30
2010,04,23,11,23,11.30
2010,04,23,11,24,11.30
2010,04,23,11,25,11.20
2010,04,23,11,26,11.20
2010,04,23,11,27,11.20
2010,04,23,11,28,11.20
2010,04,23,11,29,11.30
2010,04,23,11,30,11.30
2010,04,23,11,31,11.30
2010,04,23,11,32,11.20
2010,04,23,11,33,11.10
2010,04,23,11,34,11.00
2010,04,23,11,35,11.00
2010,04,23,11,36,11.00
2010,04,23,11,37,11.10
2010,04,23,11,38,11.00
2010,04,23,11,39,10.80
2010,04,23,11,40,10.70
2010,04,23,11,41,10.70
2010,04,23,11,42,10.70
2010,04,23,11,43,10.70
2010,04,23,11,44,10.70
2010,04,23,11,45,10.70
2010,04,23,11,46,10.70
2010,04,23,11,47,10.70
2010,04,23,11,48,10.80
2010,04,23,11,49,10.80
2010,04,23,11,50,10.80
2010,04,23,11,51,10.80
2010,04,23,11,52,10.80
2010,04,23,11,53,10.80
2010,04,23,11,54,10.80
2010,04,23,11,55,10.80
2010,04,23,11,56,10.80
2010,04,23,11,57,10.70
2010,04,23,11,58,10.70
2010,04,23,11,59,10.70
2010,04,23,12,00,10.80
2010,04,23,12,01,10.80
2010,04,23,12,02,10.80
2010,04,23,12,03,10.90
2010,04,23,12,04,10.80
2010,04,23,12,05,10.80
2010,04,23,12,06,10.80
2010,04,23,12,07,10.80
2010,04,23,12,08,10.80
2010,04,23,12,09,10.80
2010,04,23,12,10,10.80
2010,04,23,12,11,10.80
2010,04,23,12,12,10.80
2010,04,23,12,13,10.70
2010,04,23,12,14,10.70
2010,04,23,12,15,10.70
2010,04,23,12,16,10.70
2010,04,23,12,17,10.70
2010,04,23,12,18,10.70
2010,04,23,12,19,10.60
2010,04,23,12,20,10.50
2010,04,23,12,21,10.50
2010,04,23,12,22,10.50
2010,04,23,12,23,10.40
2010,04,23,12,24,10.40
2010,04,23,12,25,10.40
2010,04,23,12,26,10.30
2010,04,23,12,27,10.30
2010,04,23,12,28,10.40
2010,04,23,12,29,10.40
2010,04,23,12,30,10.40
2010,04,23,12,31,10.40
2010,04,23,12,32,10.40
2010,04,23,12,33,10.40
2010,04,23,12,34,10.40
2010,04,23,12,35,10.40
2010,04,23,12,36,10.50
2010,04,23,12,37,10.50
2010,04,23,12,38,10.50
2010,04,23,12,39,10.50
2010,04,23,12,40,10.50
2010,04,23,12,41,10.40
2010,04,23,12,42,10.40
2010,04,23,12,43,10.40
2010,04,23,12,44,10.40
2010,04,23,12,45,10.40
2010,04,23,12,46,10.30
2010,04,23,12,47,10.30
2010,04,23,12,48,10.30
2010,04,23,12,49,10.30
2010,04,23,12,50,10.30
2010,04,23,12,51,10.20
2010,04,23,12,52,10.20
2010,04,23,12,53,10.10
2010,04,23,12,54,10.10
2010,04,23,12,55,10.20
2010,04,23,12,56,10.20
2010,04,23,12,57,10.20
2010,04,23,12,58,10.20
2010,04,23,12,59,10.20
2010,04,23,13,00,10.20
2010,04,23,13,01,10.20
2010,04,23,13,02,10.20
2010,04,23,13,03,10.20
2010,04,23,13,04,10.20
2010,04,23,13,05,10.30
2010,04,23,13,06,10.30
2010,04,23,13,07,10.40
2010,04,23,13,08,10.50
2010,04,23,13,09,10.50
2010,04,23,13,10,10.40
2010,04,23,13,11,10.50
2010,04,23,13,12,10.50
2010,04,23,13,13,10.50
2010,04,23,13,14,10.50
2010,04,23,13,15,10.50
2010,04,23,13,16,10.50
2010,04,23,13,17,10.50
2010,04,23,13,18,10.40
2010,04,23,13,19,10.40
2010,04,23,13,20,10.40
2010,04,23,13,21,10.40
2010,04,23,13,22,10.40
2010,04,23,13,23,10.40
2010,04,23,13,24,10.40
2010,04,23,13,25,10.40
2010,04,23,13,26,10.30
2010,04,23,13,27,10.30
2010,04,23,13,28,10.30
2010,04,23,13,29,10.30
2010,04,23,13,30,10.30
2010,04,23,13,31,10.30
2010,04,23,13,32,10.40
2010,04,23,13,33,10.50
2010,04,23,13,34,10.60
2010,04,23,13,35,10.70
2010,04,23,13,36,10.80
2010,04,23,13,37,10.80
2010,04,23,13,38,10.80
2010,04,23,13,39,10.90
2010,04,23,13,40,11.00
2010,04,23,13,41,11.10
2010,04,23,13,42,11.10
2010,04,23,13,43,11.10
2010,04,23,13,44,11.10
2010,04,23,13,45,11.20
2010,04,23,13,46,11.20
2010,04,23,13,47,11.20
2010,04,23,13,48,11.10
2010,04,23,13,49,11.10
2010,04,23,13,50,11.00
2010,04,23,13,51,10.90
2010,04,23,13,52,10.90
2010,04,23,13,53,10.80
2010,04,23,13,54,10.80
2010,04,23,13,55,10.80
2010,04,23,13,56,10.80
2010,04,23,13,57,10.80
2010,04,23,13,58,10.80
2010,04,23,13,59,10.80
2010,04,23,14,00,10.80
2010,04,23,14,01,10.70
2010,04,23,14,02,10.70
2010,04,23,14,03,10.60
2010,04,23,14,04,10.60
2010,04,23,14,05,10.50
2010,04,23,14,06,10.40
2010,04,23,14,07,10.40
2010,04,23,14,08,10.30
2010,04,23,14,09,10.30
2010,04,23,14,10,10.30
2010,04,23,14,11,10.30
2010,04,23,14,12,10.30
2010,04,23,14,13,10.30
2010,04,23,14,14,10.30
2010,04,23,14,15,10.20
2010,04,23,14,16,10.20
2010,04,23,14,17,10.30
2010,04,23,14,18,10.30
2010,04,23,14,19,10.30
2010,04,23,14,20,10.30
2010,04,23,14,21,10.30
2010,04,23,14,22,10.30
2010,04,23,14,23,10.20
2010,04,23,14,24,10.20
2010,04,23,14,25,10.20
2010,04,23,14,26,10.10
2010,04,23,14,27,10.00
2010,04,23,14,28,10.00
2010,04,23,14,29,9.90
2010,04,23,14,30,9.90
2010,04,23,14,31,9.90
2010,04,23,14,32,9.90
2010,04,23,14,33,9.90
2010,04,23,14,34,9.90
2010,04,23,14,35,9.80
2010,04,23,14,36,9.90
2010,04,23,14,37,9.90
2010,04,23,14,38,9.90
2010,04,23,14,39,9.90
2010,04,23,14,40,9.90
2010,04,23,14,41,9.80
2010,04,23,14,42,9.80
2010,04,23,14,43,9.80
2010,04,23,14,44,9.80
2010,04,23,14,45,9.80
2010,04,23,14,46,9.80
2010,04,23,14,47,9.80
2010,04,23,14,48,9.70
2010,04,23,14,49,9.70
2010,04,23,14,50,9.70
2010,04,23,14,51,9.70
2010,04,23,14,52,9.60
2010,04,23,14,53,9.60
2010,04,23,14,54,9.60
2010,04,23,14,55,9.60
2010,04,23,14,56,9.50
2010,04,23,14,57,9.40
2010,04,23,14,58,9.40
2010,04,23,14,59,9.40
2010,04,23,15,00,9.30
2010,04,23,15,01,9.30
2010,04,23,15,02,9.30
2010,04,23,15,03,9.20
2010,04,23,15,04,9.20
2010,04,23,15,05,9.20
2010,04,23,15,06,9.20
2010,04,23,15,07,9.20
2010,04,23,15,08,9.10
2010,04,23,15,09,9.10
2010,04,23,15,10,9.10
2010,04,23,15,11,9.10
2010,04,23,15,12,9.10
2010,04,23,15,13,9.10
2010,04,23,15,14,9.10
2010,04,23,15,15,9.10
2010,04,23,15,16,9.00
2010,04,23,15,17,9.00
2010,04,23,15,18,9.00
2010,04,23,15,19,9.00
2010,04,23,15,20,9.00
2010,04,23,15,21,9.00
2010,04,23,15,22,9.00
2010,04,23,15,23,9.10
2010,04,23,15,24,9.10
2010,04,23,15,25,9.10
2010,04,23,15,26,9.10
2010,04,23,15,27,9.20
2010,04,23,15,28,9.20
2010,04,23,15,29,9.20
2010,04,23,15,30,9.20
2010,04,23,15,31,9.20
2010,04,23,15,32,9.20
2010,04,23,15,33,9.20
2010,04,23,15,34,9.20
2010,04,23,15,35,9.30
2010,04,23,15,36,9.30
2010,04,23,15,37,9.30
2010,04,23,15,38,9.30
2010,04,23,15,39,9.40
2010,04,23,15,40,9.40
2010,04,23,15,41,9.50
2010,04,23,15,42,9.50
2010,04,23,15,43,9.60
2010,04,23,15,44,9.60
2010,04,23,15,45,9.60
2010,04,23,15,46,9.60
2010,04,23,15,47,9.70
2010,04,23,15,48,9.70
2010,04,23,15,49,9.70
2010,04,23,15,50,9.80
2010,04,23,15,51,9.80
2010,04,23,15,52,9.80
2010,04,23,15,53,9.90
2010,04,23,15,54,9.90
2010,04,23,15,55,9.90
2010,04,23,15,56,9.90
2010,04,23,15,57,9.90
2010,04,23,15,58,9.90
2010,04,23,15,59,10.00
2010,04,23,16,00,10.00
2010,04,23,16,01,10.10
2010,04,23,16,02,10.10
2010,04,23,16,03,10.10
2010,04,23,16,04,10.10
2010,04,23,16,05,10.10
2010,04,23,16,06,10.20
2010,04,23,16,07,10.20
2010,04,23,16,08,10.20
2010,04,23,16,09,10.30
2010,04,23,16,10,10.30
2010,04,23,16,11,10.40
2010,04,23,16,12,10.40
2010,04,23,16,13,10.50
2010,04,23,16,14,10.50
2010,04,23,16,15,10.50
2010,04,23,16,16,10.50
2010,04,23,16,17,10.40
2010,04,23,16,18,10.40
2010,04,23,16,19,10.30
2010,04,23,16,20,10.30
2010,04,23,16,21,10.20
2010,04,23,16,22,10.20
2010,04,23,16,23,10.30
2010,04,23,16,24,10.30
2010,04,23,16,25,10.30
2010,04,23,16,26,10.30
2010,04,23,16,27,10.30
2010,04,23,16,28,10.30
2010,04,23,16,29,10.30
2010,04,23,16,30,10.30
2010,04,23,16,31,10.30
2010,04,23,16,32,10.30
2010,04,23,16,33,10.30
2010,04,23,16,34,10.30
2010,04,23,16,35,10.30
2010,04,23,16,36,10.40
2010,04,23,16,37,10.40
2010,04,23,16,38,10.30
2010,04,23,16,39,10.30
2010,04,23,16,40,10.30
2010,04,23,16,41,10.30
2010,04,23,16,42,10.30
2010,04,23,16,43,10.30
2010,04,23,16,44,10.30
2010,04,23,16,45,10.30
2010,04,23,16,46,10.40
2010,04,23,16,47,10.50
2010,04,23,16,48,10.60
2010,04,23,16,49,10.60
2010,04,23,16,50,10.60
2010,04,23,16,51,10.70
2010,04,23,16,52,10.70
2010,04,23,16,53,10.70
2010,04,23,16,54,10.70
2010,04,23,16,55,10.60
2010,04,23,16,56,10.60
2010,04,23,16,57,10.60
2010,04,23,16,58,10.60
2010,04,23,16,59,10.60
2010,04,23,17,00,10.60
2010,04,23,17,01,10.60
2010,04,23,17,02,10.60
2010,04,23,17,03,10.60
2010,04,23,17,04,10.60
2010,04,23,17,05,10.60
2010,04,23,17,06,10.60
2010,04,23,17,07,10.50
2010,04,23,17,08,10.50
2010,04,23,17,09,10.50
2010,04,23,17,10,10.50
2010,04,23,17,11,10.50
2010,04,23,17,12,10.50
2010,04,23,17,13,10.40
2010,04,23,17,14,10.40
2010,04,23,17,15,10.30
2010,04,23,17,16,10.40
2010,04,23,17,17,10.30
2010,04,23,17,18,10.30
2010,04,23,17,19,10.30
2010,04,23,17,20,10.30
2010,04,23,17,21,10.30
2010,04,23,17,22,10.30
2010,04,23,17,23,10.30
2010,04,23,17,24,10.30
2010,04,23,17,25,10.30
2010,04,23,17,26,10.40
2010,04,23,17,27,10.40
2010,04,23,17,28,10.40
2010,04,23,17,29,10.40
2010,04,23,17,30,10.40
2010,04,23,17,31,10.40
2010,04,23,17,32,10.40
2010,04,23,17,33,10.40
2010,04,23,17,34,10.40
2010,04,23,17,35,10.40
2010,04,23,17,36,10.50
2010,04,23,17,37,10.40
2010,04,23,17,38,10.50
2010,04,23,17,39,10.50
2010,04,23,17,40,10.40
2010,04,23,17,41,10.50
2010,04,23,17,42,10.50
2010,04,23,17,43,10.50
2010,04,23,17,44,10.60
2010,04,23,17,45,10.70
2010,04,23,17,46,10.70
2010,04,23,17,47,10.60
2010,04,23,17,48,10.50
2010,04,23,17,49,10.50
2010,04,23,17,50,10.40
2010,04,23,17,51,10.40